Tracking 20083 objects as of 12-Dec-2019
HD Live streaming from Space Station
objects crossing your sky now

FENGYUN 1C DEB

Track FENGYUN 1C DEB now!
10-day predictions


NORAD ID: 36654
Int'l Code: 1999-025DXY
Perigee: 515.1 km
Apogee: 707.2 km
Inclination: 99.5 °
Period: 96.8 minutes
Semi major axis: 6982 km
RCS: 0.0066 m2 (small)
Launch date: May 10, 1999
Source: People's Republic of China (PRC)
Launch site: Taiyaun Space Center, China (TSC)

Note: This is SATELLITE DEBRIS
aabbcc
Your satellite tracking list
Your tracking list is empty




NASA's NSSDC Master Catalog

Two Line Element Set (TLE):
1 36654U 99025DXY 19344.63142798  .00002548  00000-0  24110-3 0  9990
2 36654  99.5041 281.6740 0137557 213.5883 145.6552 14.88042535552583
Source of the keplerian elements: AFSPC